Terminal Aerodrome Forecast
Issued by NWS

Home | Current Version | Previous Version | Text Only | Print | Product List | Glossary On
Versions: 1 2 3 4 5 6 7 8 9 10 11 12 13 14 15 16 17 18 19 20 21 22 23 24 25 26 27 28 29 30 31 32 33 34 35 36 37 38 39 40 41 42 43 44 45 46 47 48 49 50
000
FTUS46 KEKA 180520
TAFACV
TAF
KACV 180520Z 1806/1906 20003KT 4SM BR OVC010
     FM181100 VRB03KT 2SM BR OVC003
      TEMPO 1812/1816 1/2SM FG
     FM181700 29004KT 6SM BR BKN005
     FM182000 32006KT P6SM SCT008
     FM182200 32007KT P6SM SCT015
     FM190200 31005KT P6SM BKN005=

USA.gov is the U.S. government's official web portal to all federal, state and local government web resources and services.